Content
SEND FEEDBACK

Daily
Averages
Monthly
Summary
United States of America

TAMUNING, GUAM


Home > North America > United States > Guam
Elevation: 250 feet     Latitude: 13 29N     Longitude: 144 47E

WEATHER
 
SELECT A DAY
Number of Records: 342,637;   Date Range: 1/1/95 - 9/20/14
 
SHARE

PRINT THIS DATA

[ ← Previous Day ]
WEATHER ALMANAC - APRIL 6, 2014
[ Next Day → ]
[ °C ]   °F
Weather ElementAverageHighLow
Temperature80.8 °F85.3 °F (11:58 am)77 °F (3:51 am)
Dewpoint73.4 °F75.2 °F (12:43 pm)71.6 °F (6:08 am)
Humidity78.5 %89 % (3:51 am)68 % (11:58 am)
Barometer29.88 in29.93 in (9:08 pm)29.81 in (1:58 pm)
Wind Speed16.2 mph20.7 mph (5:13 am)
Wind Gust27.6 mph (12:28 pm)
Weather ElementAverage
Visibility10 mi
Wind DirectionENE (75.4 °)

Weather ElementTotal
Precipitation---
Cooling Degree Days16.2 (Base 65)
Growing Degree Days31.2 (Base 50)
Averaged from 82 records on April 6, 2014
WEATHER CONDITIONS BREAKOUT
WIND DIRECTION BREAKOUT
WEATHER BY HOUR - APRIL 6, 2014
[ °C ]   °F
Local TimeTemperatureDewpointHumidityBarometerVisibilityWind DirectionWind SpeedGust SpeedPrecipitationEventsConditions
12:33 AM78.8 °F73.4 °F83 %29.92 in10.0 miEast (80°)17.3 mphScattered Clouds
12:58 AM78.8 °F73.6 °F84 %29.88 in10.0 miEast (80°)15.0 mph21.9 mphPartly Cloudy
1:58 AM78.8 °F73.0 °F82 %29.87 in10.0 miEast (80°)15.0 mphPartly Cloudy
2:58 AM79.0 °F73.8 °F84 %29.87 in10.0 miENE (70°)17.3 mphScattered Clouds
3:08 AM78.8 °F73.4 °F83 %29.90 in10.0 miEast (80°)16.1 mphMostly Cloudy
3:18 AM78.8 °F73.4 °F83 %29.90 in10.0 miEast (80°)12.7 mphScattered Clouds
3:38 AM78.8 °F73.4 °F83 %29.90 in10.0 miENE (70°)18.4 mphRainLight Rain
3:51 AM77.0 °F73.4 °F89 %29.90 in10.0 miENE (70°)16.1 mphMostly Cloudy
3:56 AM77.0 °F73.4 °F89 %29.90 in10.0 miENE (70°)16.1 mphMostly Cloudy
3:58 AM77.0 °F73.4 °F89 %29.87 in10.0 miEast (80°)16.1 mph0.00 inMostly Cloudy
4:13 AM77.0 °F73.4 °F89 %29.90 in10.0 miENE (70°)17.3 mphMostly Cloudy
4:23 AM77.0 °F73.4 °F89 %29.90 in10.0 miENE (70°)15.0 mphScattered Clouds
4:58 AM77.5 °F73.6 °F88 %29.86 in10.0 miENE (70°)17.3 mphScattered Clouds
5:13 AM78.8 °F73.4 °F83 %29.89 in10.0 miENE (70°)20.7 mph23.0 mphMostly Cloudy
5:18 AM78.8 °F73.4 °F83 %29.89 in10.0 miENE (70°)16.1 mphScattered Clouds
5:38 AM77.0 °F73.4 °F89 %29.89 in10.0 miENE (70°)18.4 mph23.0 mphMostly Cloudy
5:43 AM78.8 °F73.4 °F83 %29.89 in10.0 miENE (70°)18.4 mph23.0 mphMostly Cloudy
5:58 AM78.1 °F73.2 °F85 %29.87 in10.0 miENE (70°)17.3 mphMostly Cloudy
6:03 AM78.8 °F73.4 °F83 %29.90 in10.0 miENE (70°)17.3 mphMostly Cloudy
6:08 AM78.8 °F71.6 °F78 %29.90 in10.0 miEast (80°)18.4 mph25.3 mphMostly Cloudy
6:13 AM78.8 °F71.6 °F78 %29.90 in10.0 miEast (80°)15.0 mph25.3 mphMostly Cloudy
6:23 AM78.8 °F73.4 °F83 %29.90 in10.0 miENE (70°)18.4 mphScattered Clouds
6:58 AM79.0 °F72.7 °F81 %29.88 in10.0 miENE (70°)17.3 mphScattered Clouds
7:48 AM78.8 °F73.4 °F83 %29.92 in10.0 miENE (70°)16.1 mphMostly Cloudy
7:52 AM78.8 °F73.4 °F83 %29.92 in10.0 miEast (80°)15.0 mphLight Drizzle
7:58 AM79.0 °F73.9 °F84 %29.89 in10.0 miEast (80°)18.4 mph0.00 inLight Drizzle
8:05 AM80.6 °F73.4 °F79 %29.92 in10.0 miEast (80°)17.3 mphScattered Clouds
8:58 AM82.2 °F73.2 °F74 %29.91 in10.0 miEast (80°)19.6 mph24.2 mph0.00 inScattered Clouds
9:33 AM82.4 °F73.4 °F74 %29.92 in10.0 miEast (90°)19.6 mph24.2 mphMostly Cloudy
9:43 AM82.4 °F73.4 °F74 %29.92 in10.0 miEast (80°)18.4 mphScattered Clouds
9:53 AM82.4 °F73.4 °F74 %29.92 in10.0 miEast (90°)19.6 mph26.5 mphMostly Cloudy
9:58 AM83.3 °F72.9 °F71 %29.89 in10.0 miEast (80°)17.3 mph26.5 mphMostly Cloudy
10:18 AM84.2 °F73.4 °F70 %29.91 in10.0 miEast (80°)20.7 mph24.2 mphScattered Clouds
10:23 AM84.2 °F73.4 °F70 %29.91 in10.0 miEast (80°)19.6 mph25.3 mphMostly Cloudy
10:33 AM84.2 °F73.4 °F70 %29.91 in10.0 miEast (80°)18.4 mph25.3 mphScattered Clouds
10:53 AM84.2 °F73.4 °F70 %29.90 in10.0 miEast (80°)18.4 mph26.5 mphMostly Cloudy
10:58 AM83.8 °F73.2 °F70 %29.87 in10.0 miEast (80°)18.4 mph26.5 mphMostly Cloudy
11:03 AM84.2 °F73.4 °F70 %29.90 in10.0 miEast (90°)20.7 mph25.3 mphScattered Clouds
11:13 AM84.2 °F73.4 °F70 %29.90 in10.0 miEast (80°)18.4 mph26.5 mphMostly Cloudy
11:18 AM84.2 °F73.4 °F70 %29.90 in10.0 miEast (80°)20.7 mph25.3 mphScattered Clouds
11:43 AM84.2 °F73.4 °F70 %29.88 in10.0 miEast (80°)19.6 mph25.3 mphMostly Cloudy
11:53 AM84.2 °F73.4 °F70 %29.88 in10.0 miENE (70°)19.6 mph25.3 mphScattered Clouds
11:58 AM85.3 °F73.6 °F68 %29.86 in10.0 miEast (80°)18.4 mphScattered Clouds
12:28 PM84.2 °F73.4 °F70 %29.87 in10.0 miENE (70°)19.6 mph27.6 mphMostly Cloudy
12:43 PM84.2 °F75.2 °F74 %29.87 in10.0 miEast (90°)16.1 mphMostly Cloudy
12:46 PM84.2 °F75.2 °F74 %29.86 in10.0 miEast (90°)17.3 mphLight Drizzle
12:58 PM81.5 °F74.5 °F79 %29.83 in9.0 miENE (70°)17.3 mph21.9 mph0.00 inLight Drizzle
12:59 PM82.4 °F73.4 °F74 %29.85 in9.0 miEast (80°)18.4 mph21.9 mphMostly Cloudy
1:41 PM80.6 °F75.2 °F84 %29.84 in9.0 miENE (70°)9.2 mphLight Drizzle
1:54 PM80.6 °F75.2 °F84 %29.84 in10.0 miENE (70°)18.4 mph23.0 mphMostly Cloudy
1:58 PM80.1 °F74.5 °F83 %29.81 in10.0 miENE (70°)18.4 mph25.3 mph0.00 inOvercast
2:58 PM83.1 °F74.3 °F75 %29.81 in10.0 miEast (80°)16.1 mphMostly Cloudy
3:13 PM84.2 °F73.4 °F70 %29.83 in10.0 miEast (80°)18.4 mphMostly Cloudy
3:23 PM82.4 °F73.4 °F74 %29.83 in10.0 miEast (80°)18.4 mphScattered Clouds
3:28 PM82.4 °F73.4 °F74 %29.83 in10.0 miEast (90°)18.4 mphMostly Cloudy
3:53 PM84.2 °F73.4 °F70 %29.84 in10.0 miEast (80°)15.0 mph23.0 mphMostly Cloudy
3:58 PM83.3 °F73.8 °F73 %29.81 in10.0 miEast (80°)12.7 mphMostly Cloudy
4:03 PM82.4 °F73.4 °F74 %29.84 in10.0 miENE (70°)15.0 mphMostly Cloudy
4:08 PM82.4 °F73.4 °F74 %29.84 in10.0 miENE (70°)13.8 mphMostly Cloudy
4:13 PM82.4 °F73.4 °F74 %29.84 in10.0 miEast (80°)13.8 mphMostly Cloudy
4:23 PM82.4 °F73.4 °F74 %29.84 in10.0 miEast (80°)16.1 mphMostly Cloudy
4:28 PM82.4 °F73.4 °F74 %29.84 in10.0 miEast (90°)13.8 mphMostly Cloudy
4:58 PM81.3 °F73.4 °F77 %29.82 in10.0 miENE (70°)13.8 mphMostly Cloudy
5:08 PM80.6 °F73.4 °F79 %29.85 in10.0 miEast (80°)11.5 mph18.4 mphMostly Cloudy
5:38 PM80.6 °F73.4 °F79 %29.86 in10.0 miENE (70°)11.5 mphScattered Clouds
5:48 PM80.6 °F73.4 °F79 %29.86 in10.0 miEast (80°)16.1 mphMostly Cloudy
5:53 PM80.6 °F73.4 °F79 %29.86 in10.0 miENE (70°)13.8 mphScattered Clouds
5:58 PM80.4 °F73.0 °F78 %29.84 in10.0 miENE (70°)12.7 mphScattered Clouds
6:03 PM80.6 °F73.4 °F79 %29.87 in10.0 miENE (70°)16.1 mphMostly Cloudy
6:08 PM80.6 °F73.4 °F79 %29.87 in10.0 miENE (60°)13.8 mphMostly Cloudy
6:13 PM80.6 °F73.4 °F79 %29.87 in10.0 miENE (70°)16.1 mphMostly Cloudy
6:53 PM80.6 °F73.4 °F79 %29.89 in10.0 miENE (70°)12.7 mphMostly Cloudy
6:58 PM80.6 °F73.4 °F79 %29.86 in10.0 miENE (70°)12.7 mphMostly Cloudy
7:53 PM78.8 °F73.4 °F83 %29.91 in10.0 miENE (70°)12.7 mphMostly Cloudy
7:58 PM79.5 °F73.0 °F80 %29.89 in10.0 miENE (60°)12.7 mphMostly Cloudy
8:03 PM78.8 °F73.4 °F83 %29.92 in10.0 miENE (60°)11.5 mphMostly Cloudy
8:58 PM79.3 °F72.7 °F80 %29.91 in10.0 miENE (70°)12.7 mphMostly Cloudy
9:08 PM78.8 °F73.4 °F83 %29.93 in10.0 miENE (70°)13.8 mphMostly Cloudy
9:13 PM78.8 °F73.4 °F83 %29.93 in10.0 miENE (70°)11.5 mphMostly Cloudy
9:58 PM78.6 °F72.7 °F82 %29.92 in10.0 miENE (70°)12.7 mphScattered Clouds
10:58 PM78.3 °F72.5 °F82 %29.92 in10.0 miENE (70°)10.4 mphScattered Clouds
11:58 PM77.5 °F71.8 °F82 %29.91 in10.0 miENE (70°)11.5 mphClear
Hourly data recorded from PGUA, located miles away from Tamuning, Guam







STORIES FROM OUR PARTNERS